Probability
0 0 0 0 0 0 0 0 0 0 0 0 0 0 0 0 0 0 0 0 0 0 1 2 3 3 4 5 7 12 17 19 18 17 16 15 13 12 12 12 9 8 7 5 5 4 3 3 4
0 0 0 0 0 0 0 0 0 0 0 0 0 0 0 0 0 0 0 0 0 0 0 1 2 3 3 4 6 11 15 17 17 16 15 15 14 13 13 12 10 9 8 6 6 6 5 5 5
0 0 0 0 0 0 0 0 0 0 0 0 0 0 0 0 0 0 0 0 0 0 0 1 2 3 3 4 5 8 12 14 14 14 14 14 14 15 14 13 13 13 12 9 8 8 7 6 6
0 0 0 0 0 0 0 0 0 0 0 0 0 0 0 0 0 0 0 0 0 0 0 3 6 6 5 6 7 8 9 11 13 13 12 12 13 14 14 15 17 18 17 14 9 7 6 5 4
0 0 0 0 0 0 0 0 0 0 0 0 0 0 0 0 0 1 1 1 0 0 0 4 7 8 7 7 8 8 8 8 10 12 11 12 12 13 13 15 18 18 18 15 10 6 4 2 1
0 0 0 0 0 0 0 0 0 0 0 0 0 0 0 0 0 1 2 2 1 0 0 2 4 5 5 6 7 7 7 7 8 10 11 11 12 12 11 13 15 16 16 13 8 6 3 1 0
0 0 0 0 0 0 0 0 0 0 0 0 0 0 0 0 0 0 1 1 1 0 0 0 1 1 2 3 4 5 5 5 6 7 8 8 10 10 10 11 12 13 12 8 5 4 3 1 1
0 0 0 0 0 0 0 0 0 0 0 0 0 0 0 0 1 1 1 1 0 0 0 0 0 0 1 1 2 3 3 4 4 5 5 5 6 7 8 10 10 10 9 6 4 3 2 3 2
0 0 0 0 0 0 0 0 0 0 0 0 0 0 0 1 2 2 2 1 1 0 0 0 0 0 0 0 0 1 2 2 2 2 2 2 3 4 5 7 7 7 7 6 4 3 2 2 2
0 0 0 0 0 0 0 0 0 0 0 0 0 1 0 1 2 2 2 2 2 1 0 0 0 0 0 0 0 0 1 1 1 1 1 1 1 2 2 2 3 3 4 4 3 2 1 1 1
0 0 0 0 0 0 0 0 0 0 0 0 0 0 0 0 1 1 1 2 2 1 0 0 0 0 0 0 0 0 0 0 0 0 0 0 0 0 0 0 0 1 1 1 1 1 0 0 0
0 0 0 0 0 0 0 0 0 0 0 0 0 0 0 0 0 0 0 1 2 2 1 0 0 0 0 0 0 0 0 0 0 0 0 0 0 0 0 0 0 0 1 0 0 0 0 0 0
0 0 0 0 0 0 0 0 0 0 0 0 0 0 0 0 0 0 0 0 1 1 1 0 0 0 0 0 0 0 0 0 0 0 0 0 0 0 0 0 0 0 0 0 0 0 0 0 0
0 0 0 0 0 0 0 0 0 0 0 0 0 0 0 0 0 0 0 0 0 0 0 0 0 0 0 0 0 0 0 0 0 0 0 0 0 0 0 0 0 0 0 0 0 0 0 0 0
0 0 0 0 0 0 0 0 0 0 0 0 0 0 0 0 0 0 0 0 0 0 0 0 0 0 0 0 0 0 0 0 0 0 0 0 0 0 0 0 0 0 0 0 0 0 0 0 0
0 0 0 0 0 0 0 0 0 0 0 0 0 0 0 0 0 0 0 0 0 0 0 0 0 0 1 1 0 0 0 0 0 0 0 0 0 0 0 0 0 0 0 0 0 0 0 0 0
0 0 0 0 0 0 0 0 0 0 0 0 0 0 0 0 0 0 0 0 0 0 0 0 0 0 1 2 1 1 1 0 0 0 0 0 0 0 0 0 0 0 0 0 0 0 0 0 0
0 0 0 0 0 0 0 0 0 0 0 0 0 0 0 0 0 0 0 0 0 0 0 0 0 0 1 2 2 2 2 1 0 0 0 0 0 0 0 0 0 0 0 0 0 0 0 0 0
0 0 0 0 0 0 0 0 0 0 0 0 0 0 0 0 0 0 0 0 0 0 0 0 0 0 0 1 2 3 3 2 1 0 0 0 0 0 0 0 0 0 0 0 0 0 0 0 0
0 0 0 0 0 0 0 0 0 0 0 0 0 0 0 0 0 0 0 0 0 0 0 0 0 0 0 0 1 1 2 3 2 1 0 0 0 0 0 0 0 0 0 0 0 0 0 0 0
0 0 0 0 0 0 0 0 0 0 0 0 0 0 0 0 0 0 0 0 0 0 0 0 0 0 0 0 0 0 1 2 3 2 1 0 0 0 0 0 0 0 0 0 0 0 0 0 0
0 0 0 0 0 0 0 0 0 0 0 0 0 0 0 0 0 0 0 0 0 0 0 0 0 0 0 0 0 0 0 1 2 2 1 0 0 0 0 0 0 0 0 0 0 0 0 0 0
0 0 0 0 0 0 0 0 0 0 0 0 0 0 0 0 0 0 0 0 0 0 0 0 0 0 0 0 0 0 0 0 1 1 1 0 0 0 0 0 0 0 0 0 0 0 0 0 0
0 0 0 0 0 0 0 0 0 0 0 0 0 0 0 0 0 0 0 0 0 0 0 0 0 0 0 0 0 0 0 0 0 0 0 0 0 0 0 0 0 0 0 0 0 0 0 0 0
0 0 0 0 0 0 0 0 0 0 0 0 0 0 0 0 0 0 0 0 0 0 0 0 0 0 0 0 0 0 0 0 0 0 0 0 0 0 0 0 0 0 0 0 0 0 0 0 0
0 0 0 0 0 0 0 0 0 0 0 0 0 0 0 0 0 0 0 0 0 0 0 0 0 0 0 0 0 0 0 0 0 0 0 0 0 0 0 0 0 0 0 0 0 0 0 0 0
0 0 0 0 0 0 0 0 0 0 0 0 0 0 0 0 0 0 0 0 0 0 0 0 0 0 0 0 0 0 0 0 0 0 0 0 0 0 0 0 0 0 0 0 0 0 0 0 0
0 0 0 0 0 0 0 0 0 0 0 0 0 0 0 0 0 0 0 0 0 0 0 0 0 0 0 0 0 0 0 0 0 0 0 0 0 0 0 0 0 0 0 0 0 0 0 0 0
0 0 0 0 0 0 0 0 0 0 0 0 0 0 0 0 0 0 0 0 0 0 0 0 0 0 0 0 0 0 0 0 0 0 0 0 0 0 0 0 0 0 0 0 0 0 0 0 0
0 0 0 0 0 0 0 0 0 0 0 0 0 0 0 0 0 0 0 0 0 0 0 0 0 0 0 0 0 0 0 0 0 0 0 0 0 0 0 0 0 0 0 0 0 0 0 0 0
Wind_Speed
8 5 2 4 6 5 2 4 2 1 2 1 2 6 7 5 3 3 1 1 2 2 1 2 5 6 7 7 7 7 7 6 6 6 6 6 6 6 7 8 8 8 9 9 9 9 9 10 10
3 3 5 5 5 1 4 3 2 2 2 1 4 5 6 4 2 4 1 1 3 2 2 2 5 7 7 7 7 7 7 6 6 6 5 5 5 6 7 7 7 7 8 8 8 9 9 9 9
3 2 4 5 4 5 4 2 3 1 1 2 4 5 4 3 2 2 0 2 3 3 2 3 6 7 7 7 7 7 7 6 6 6 5 5 5 5 6 6 7 7 7 7 8 9 9 8 8
3 4 5 4 3 4 4 3 2 0 2 4 4 5 3 2 1 2 2 4 5 4 4 3 7 7 7 6 7 7 7 6 6 5 5 5 5 5 5 6 6 7 7 7 8 8 8 7 7
4 4 4 0 3 3 3 3 1 1 1 2 4 4 2 3 2 4 4 5 5 4 4 4 7 7 7 7 7 6 6 6 6 5 4 5 5 5 5 6 6 7 7 7 7 7 7 7 7
4 4 4 3 4 3 2 2 1 1 1 1 4 4 1 1 3 3 4 4 4 4 4 4 6 8 8 7 7 6 6 6 5 5 4 4 4 4 4 5 6 6 6 7 7 7 7 6 6
4 4 3 3 2 2 3 1 1 2 1 0 3 5 1 1 1 3 4 4 4 4 4 4 3 5 7 7 7 6 6 6 6 6 5 5 4 3 4 5 5 5 5 6 6 7 6 6 5
4 4 1 2 2 3 2 2 1 2 1 1 3 6 4 3 2 4 5 4 4 4 3 3 3 3 3 4 6 7 7 6 6 6 6 6 5 4 4 4 4 5 5 5 5 6 6 5 5
4 4 3 3 4 3 1 2 3 2 3 3 3 2 3 4 5 6 4 4 3 3 2 3 3 3 3 3 4 5 6 6 6 5 7 6 3 2 2 2 3 4 4 4 5 5 5 4 4
4 4 5 3 3 2 1 1 1 2 3 2 3 3 4 6 6 5 4 3 2 1 1 2 2 2 2 2 2 2 3 3 3 3 3 3 3 3 4 4 4 3 3 3 4 4 4 3 1
4 5 3 2 2 2 1 1 1 2 0 2 3 3 4 5 4 4 3 2 2 1 1 1 2 2 2 2 2 2 2 2 3 3 3 2 2 2 3 2 2 2 2 2 2 2 1 1 1
2 2 3 2 1 1 1 1 1 1 3 2 4 5 5 5 4 3 3 2 2 2 1 1 1 2 2 2 2 2 1 1 2 2 2 2 2 2 2 2 2 1 1 1 1 1 1 1 1
2 2 1 1 0 1 1 1 1 2 2 2 4 5 5 4 3 2 2 2 2 2 1 1 2 2 2 1 1 2 1 1 1 1 2 2 2 2 1 1 1 1 1 1 1 2 1 1 1
2 1 2 2 1 1 2 1 1 4 2 2 3 3 3 4 3 2 2 1 1 1 1 1 2 2 2 2 1 1 1 1 1 1 2 2 1 1 1 1 1 1 1 1 1 2 2 1 1
0 1 3 2 2 2 2 3 4 5 3 2 2 2 3 3 3 3 3 2 2 1 1 1 2 2 2 2 2 1 1 1 1 1 2 2 2 2 2 1 1 1 1 2 1 1 1 2 2
1 1 2 4 2 2 4 6 5 3 4 3 2 2 2 1 2 2 2 2 1 2 2 1 2 2 2 2 2 1 1 1 1 1 1 1 2 2 2 2 1 1 1 1 1 1 1 1 1
1 2 4 4 2 2 3 6 5 2 4 3 3 2 2 1 1 2 2 3 2 2 2 2 2 2 2 2 2 1 1 1 1 1 1 1 2 2 1 1 1 1 1 1 1 1 1 1 1
4 4 4 5 3 1 3 6 6 4 3 3 3 2 2 2 2 2 2 3 3 3 3 3 2 2 2 2 2 2 2 2 2 2 2 2 1 1 1 1 1 1 1 1 1 1 1 1 1
3 3 5 6 3 2 5 8 8 5 3 3 3 3 3 2 1 1 2 3 3 3 3 2 2 2 2 1 1 1 1 1 1 1 1 1 1 1 1 1 1 1 1 1 0 1 2 1 1
4 4 5 5 3 2 5 9 6 5 6 7 6 5 4 2 0 0 2 2 3 2 2 2 2 1 1 1 0 0 0 0 0 1 1 1 1 1 1 1 0 0 1 1 1 1 1 1 1
4 5 5 5 4 2 2 6 4 4 3 4 5 4 4 5 3 2 2 2 2 2 1 1 1 1 1 1 1 2 1 1 1 1 1 1 1 1 1 1 1 0 1 1 1 1 1 1 0
6 4 4 3 1 4 2 5 6 4 3 4 4 4 4 3 3 2 2 2 2 1 1 1 1 1 1 1 2 1 1 1 1 1 1 1 1 1 0 0 1 1 1 1 1 1 1 2 1
5 3 3 3 2 3 3 4 7 2 4 5 5 4 4 4 3 3 3 3 2 1 1 1 1 1 1 1 1 1 1 1 1 1 1 1 1 1 1 0 1 1 1 1 1 1 1 2 2
1 2 2 2 2 4 6 5 7 5 7 5 4 4 3 3 2 2 1 2 1 1 1 1 1 1 1 1 1 1 1 1 1 1 1 1 1 1 1 1 1 1 1 2 2 2 2 2 2
2 4 3 3 1 6 2 4 8 5 4 5 5 4 3 2 1 1 1 1 1 1 1 1 1 0 0 0 1 2 2 2 2 2 2 2 1 1 2 1 1 2 2 2 2 2 2 2 2
2 5 5 4 5 5 2 6 6 3 1 1 2 2 2 2 1 1 1 2 2 1 1 1 0 1 0 0 1 2 2 2 2 2 2 2 2 2 2 2 2 2 2 2 2 2 2 2 2
2 2 3 2 2 4 5 5 5 2 2 2 2 2 1 0 1 0 0 1 1 1 1 1 1 1 1 1 2 2 2 2 3 3 2 2 2 2 2 2 2 2 2 2 2 2 2 2 2
2 3 2 2 2 5 5 4 5 3 2 1 0 0 2 2 1 1 1 1 1 1 1 0 1 1 1 1 2 2 2 3 3 2 2 3 3 2 1 2 2 2 2 2 2 2 2 2 3
1 1 2 2 3 3 4 6 3 3 2 2 2 2 2 2 2 2 2 1 1 0 1 1 1 1 1 2 2 2 3 3 3 2 3 3 2 2 2 2 2 2 2 2 2 2 2 3 3
3 3 4 3 3 3 3 7 2 1 1 2 2 3 3 2 2 2 2 1 0 1 1 1 1 1 2 2 2 2 3 2 2 3 3 2 2 2 2 2 2 2 3 2 3 3 3 3 4
Wind_Direction
331 340 51 56 58 55 237 257 250 311 3 0 65 87 97 90 109 143 152 44 56 78 80 90 82 82 80 78 78 77 85 93 97 98 101 101 107 108 109 110 111 112 113 115 114 110 108 103 102
336 359 53 61 91 128 258 255 245 248 203 137 64 75 78 75 67 96 57 15 66 71 70 81 91 93 87 84 80 78 77 86 94 98 100 101 107 112 113 112 113 113 113 115 117 114 113 109 105
338 49 79 79 125 183 220 231 211 238 52 87 66 51 83 102 102 120 146 104 70 60 48 74 94 96 91 86 82 79 75 76 86 91 97 101 104 114 116 114 114 115 115 115 114 114 117 114 109
51 47 58 86 197 221 210 225 214 142 30 51 91 68 50 30 123 146 120 96 79 52 37 61 85 92 88 85 84 81 78 74 75 81 88 101 102 113 117 114 114 116 120 119 116 114 118 120 117
61 76 77 110 235 247 238 244 227 149 92 46 95 99 54 356 53 95 99 93 87 60 39 49 70 78 83 83 84 81 76 75 71 73 80 89 96 105 116 120 121 120 122 127 127 125 125 128 125
60 73 107 210 241 267 279 262 170 134 99 59 95 109 137 3 67 87 101 95 88 79 55 47 62 71 70 74 79 80 73 69 68 66 73 86 87 98 111 118 123 123 127 131 133 131 130 127 129
105 108 167 197 226 270 281 282 147 149 111 64 120 115 152 346 87 105 101 91 81 77 66 48 45 62 67 67 70 70 68 64 61 60 60 67 77 91 110 116 119 116 116 125 129 132 131 128 124
126 112 168 214 204 238 302 10 40 89 142 22 93 134 184 218 147 103 92 85 79 70 65 54 44 51 53 54 62 60 58 56 54 51 50 56 60 73 95 109 116 115 113 118 129 135 134 130 123
95 93 194 213 195 220 344 39 358 26 74 41 46 128 167 137 114 96 79 61 58 57 54 61 56 50 52 59 58 55 54 51 50 46 51 52 37 47 71 74 103 117 116 120 130 136 128 118 112
99 157 213 215 183 183 53 65 350 42 38 46 40 44 89 110 113 111 107 98 76 63 50 63 74 67 69 69 57 40 43 44 41 35 39 43 46 45 53 54 64 84 102 111 111 111 109 102 93
148 186 211 240 197 162 127 14 12 108 259 209 179 151 126 117 121 129 129 118 130 137 85 76 97 93 90 77 71 48 36 36 39 36 31 38 51 52 50 50 44 50 76 101 93 86 70 90 100
171 231 213 234 213 146 166 144 24 142 224 190 155 147 137 140 149 156 147 136 105 81 72 69 99 93 88 88 86 77 60 42 35 28 28 52 60 56 50 56 43 44 61 84 95 102 73 73 94
225 262 283 247 80 151 120 162 194 251 238 132 122 128 145 150 153 152 143 134 111 92 71 60 88 93 88 84 79 80 78 74 65 38 36 61 74 69 59 52 56 49 49 84 119 115 106 94 91
212 245 282 265 236 207 152 261 165 248 212 141 136 153 174 167 165 136 120 121 127 120 85 70 77 95 90 92 89 83 95 87 67 59 47 59 81 85 73 59 51 51 52 33 148 140 139 143 124
143 342 317 272 212 200 127 297 227 219 181 167 181 180 179 183 166 162 172 163 153 126 106 83 97 86 96 102 101 79 88 105 83 66 54 57 66 77 83 72 48 19 47 50 45 101 124 126 114
38 45 282 275 195 193 152 251 249 201 166 185 208 209 173 199 193 178 162 142 125 102 97 91 83 82 87 91 89 80 79 94 90 70 60 61 64 69 84 81 52 20 46 74 78 54 109 121 113
17 241 250 281 233 175 180 241 252 217 168 189 207 216 204 216 289 188 161 139 129 119 103 85 78 91 96 85 71 68 74 74 64 53 45 51 59 73 90 91 62 42 55 55 70 74 124 126 104
226 234 243 246 258 245 243 252 260 249 197 204 220 222 218 217 249 217 157 139 124 109 96 84 70 62 78 79 71 61 60 56 50 50 37 46 46 64 92 87 64 71 73 54 52 79 72 113 136
221 225 255 262 267 258 248 259 257 246 217 216 226 223 231 244 265 116 129 125 108 95 92 92 86 58 68 69 76 86 59 35 36 39 33 43 42 50 86 76 59 75 103 112 93 115 97 62 87
245 248 264 284 287 257 266 270 260 229 211 207 211 220 218 218 256 80 103 105 111 116 110 105 101 100 97 84 70 202 187 251 25 8 7 19 44 41 70 91 101 109 112 93 98 105 117 83 92
252 228 239 261 317 309 294 289 252 243 210 211 213 206 205 195 192 200 146 131 111 107 131 130 120 108 109 74 69 53 42 21 10 357 347 343 6 50 72 121 136 124 135 166 181 147 141 159 178
255 240 234 246 263 267 199 275 266 234 235 224 226 210 203 195 182 191 161 148 150 173 152 129 129 102 94 101 102 116 138 215 254 268 288 329 346 16 42 145 151 155 162 178 218 171 169 162 190
240 253 244 239 217 268 238 233 272 220 240 242 232 215 204 197 186 196 186 175 164 153 137 122 101 87 78 107 151 156 178 242 283 302 306 321 322 315 323 250 188 191 203 207 201 205 196 185 186
248 23 11 39 93 262 234 204 271 226 217 223 219 206 196 183 180 189 170 142 120 103 92 89 92 71 64 124 187 179 195 232 293 309 285 282 289 290 303 288 242 226 221 222 215 207 208 209 197
83 82 18 343 303 251 230 209 251 243 221 213 208 210 192 163 153 169 111 115 123 115 111 111 115 73 36 59 240 220 216 219 228 246 256 261 263 259 258 259 248 243 237 230 222 209 215 217 210
203 156 175 220 236 275 286 235 255 275 252 165 157 170 156 153 162 185 179 170 176 179 164 147 188 272 279 259 275 256 234 224 235 245 245 245 253 250 241 238 240 244 240 233 222 220 220 213 218
172 201 192 170 260 268 261 272 298 343 11 42 56 61 68 135 158 193 218 167 179 191 203 202 229 277 284 274 282 277 251 237 242 251 252 254 259 268 252 244 238 237 237 234 220 218 223 213 218
167 160 110 153 225 260 272 263 255 264 255 281 3 263 288 293 250 261 260 190 192 200 236 266 248 255 270 283 280 287 268 253 248 247 255 260 264 259 250 260 255 248 245 241 232 229 225 217 227
166 169 175 190 203 214 263 265 239 210 225 240 266 273 271 264 246 259 264 218 207 221 230 264 283 282 284 281 276 277 274 265 258 252 257 257 260 249 235 237 244 248 248 242 234 238 227 225 233
202 194 165 188 244 228 252 269 298 201 294 275 285 308 303 290 272 267 239 203 238 285 284 281 289 289 288 287 288 280 280 274 264 260 260 260 261 255 246 239 237 248 251 240 234 243 239 229 233